| time (UTC) | temp C | wind direction | speed KPH | gust KPH | rain 1hr cm | rain 24hr cm | rain mn cm | humidity % | barometer mb |
| 20260507085520 | 1 | 263 | 0.0 | 4.8 | 0.00 | 0.03 | 0.00 | 1 | 1016.7 |
| 20260507085019 | 1 | 263 | 0.0 | 4.8 | 0.00 | 0.03 | 0.00 | 1 | 1016.7 |
| 20260507084517 | 1 | 263 | 1.6 | 4.8 | 0.00 | 0.03 | 0.00 | 1 | 1016.7 |
| 20260507084017 | 0 | 263 | 0.0 | 9.7 | 0.00 | 0.03 | 0.00 | 1 | 1016.7 |
| 20260507083515 | 0 | 224 | 3.2 | 8.0 | 0.00 | 0.03 | 0.00 | 1 | 1016.8 |
| 20260507083029 | 0 | 224 | 0.0 | 4.8 | 0.00 | 0.03 | 0.00 | 1 | 1016.7 |
| 20260507082511 | 0 | 224 | 0.0 | 0.0 | 0.00 | 0.03 | 0.00 | 1 | 1016.7 |
| 20260507082010 | 0 | 224 | 0.0 | 3.2 | 0.00 | 0.03 | 0.00 | 1 | 1016.6 |
| 20260507081511 | 0 | 224 | 0.0 | 4.8 | 0.00 | 0.03 | 0.00 | 1 | 1016.8 |
| 20260507081007 | 0 | 224 | 3.2 | 4.8 | 0.00 | 0.03 | 0.00 | 1 | 1016.8 |
| 20260507080506 | 0 | 224 | 1.6 | 4.8 | 0.00 | 0.03 | 0.00 | 1 | 1016.8 |
| 20260507075503 | 0 | 224 | 0.0 | 1.6 | 0.00 | 0.20 | 0.00 | 1 | 1017.0 |
| 20260507075001 | 0 | 224 | 0.0 | 4.8 | 0.00 | 0.20 | 0.00 | 1 | 1017.0 |
| 20260507074604 | 1 | 224 | 0.0 | 4.8 | 0.00 | 0.20 | 0.00 | 1 | 1017.0 |
| 20260507074057 | 1 | 224 | 3.2 | 4.8 | 0.00 | 0.20 | 0.00 | 1 | 1017.0 |
| 20260507073556 | 1 | 224 | 3.2 | 4.8 | 0.00 | 0.20 | 0.00 | 1 | 1017.0 |
| 20260507073106 | 1 | 224 | 0.0 | 3.2 | 0.00 | 0.20 | 0.00 | 1 | 1017.0 |
| 20260507072554 | 1 | 224 | 0.0 | 4.8 | 0.00 | 0.20 | 0.00 | 1 | 1017.1 |
| 20260507072052 | 2 | 224 | 0.0 | 4.8 | 0.00 | 0.20 | 0.00 | 1 | 1017.0 |
| 20260507071601 | 2 | 224 | 1.6 | 4.8 | 0.00 | 0.20 | 0.00 | 1 | 1017.0 |
| 20260507071051 | 2 | 224 | 0.0 | 4.8 | 0.00 | 0.20 | 0.00 | 1 | 1016.8 |
| 20260507070548 | 1 | 224 | 3.2 | 4.8 | 0.00 | 0.20 | 0.00 | 1 | 1016.9 |
| 20260507070046 | 1 | 168 | 0.0 | 4.8 | 0.00 | 0.20 | 0.00 | 5 | 1016.8 |
| 20260507065544 | 2 | 168 | 1.6 | 4.8 | 0.00 | 0.38 | 0.00 | 8 | 1016.9 |
| 20260507065046 | 2 | 168 | 1.6 | 4.8 | 0.00 | 0.38 | 0.00 | 8 | 1016.8 |
| 20260507064546 | 2 | 168 | 1.6 | 6.4 | 0.00 | 0.38 | 0.00 | 20 | 1016.7 |
| 20260507064040 | 2 | 168 | 0.0 | 6.4 | 0.00 | 0.38 | 0.00 | 31 | 1016.7 |
| 20260507063539 | 2 | 168 | 4.8 | 6.4 | 0.00 | 0.38 | 0.00 | 27 | 1016.6 |
| 20260507063040 | 2 | 168 | 0.0 | 3.2 | 0.00 | 0.38 | 0.00 | 30 | 1016.7 |
| 20260507062535 | 3 | 168 | 0.0 | 6.4 | 0.00 | 0.38 | 0.00 | 36 | 1016.9 |
| 20260507062034 | 3 | 168 | 3.2 | 6.4 | 0.00 | 0.38 | 0.00 | 35 | 1016.6 |
| 20260507061535 | 3 | 168 | 1.6 | 3.2 | 0.00 | 0.38 | 0.00 | 33 | 1016.7 |
| 20260507061033 | 3 | 168 | 0.0 | 3.2 | 0.00 | 0.38 | 0.00 | 34 | 1016.7 |
| 20260507060530 | 3 | 168 | 1.6 | 3.2 | 0.00 | 0.38 | 0.00 | 33 | 1016.6 |
| 20260507060029 | 4 | 168 | 0.0 | 0.0 | 0.00 | 0.38 | 0.00 | 29 | 1016.5 |
| 20260507055529 | 4 | 168 | 0.0 | 1.6 | 0.00 | 0.38 | 0.38 | 27 | 1016.5 |
| 20260507055030 | 4 | 168 | 0.0 | 3.2 | 0.00 | 0.38 | 0.38 | 24 | 1016.5 |
| 20260507054526 | 4 | 168 | 0.0 | 1.6 | 0.00 | 0.38 | 0.38 | 22 | 1016.4 |
| 20260507054024 | 4 | 168 | 0.0 | 0.0 | 0.00 | 0.38 | 0.38 | 20 | 1016.4 |
| 20260507053523 | 4 | 168 | 0.0 | 0.0 | 0.00 | 0.38 | 0.38 | 20 | 1016.3 |
| 20260507053023 | 4 | 168 | 0.0 | 1.6 | 0.00 | 0.38 | 0.38 | 21 | 1016.3 |
| 20260507052520 | 4 | 168 | 0.0 | 4.8 | 0.00 | 0.38 | 0.38 | 21 | 1016.3 |
| 20260507052019 | 4 | 168 | 1.6 | 4.8 | 0.00 | 0.38 | 0.38 | 23 | 1016.2 |
| 20260507051518 | 4 | 168 | 0.0 | 1.6 | 0.00 | 0.38 | 0.38 | 26 | 1016.2 |
| 20260507051015 | 3 | 168 | 0.0 | 1.6 | 0.00 | 0.38 | 0.38 | 36 | 1016.2 |
| 20260507050514 | 4 | 168 | 0.0 | 3.2 | 0.00 | 0.38 | 0.38 | 44 | 1016.3 |
| 20260507050013 | 4 | 168 | 0.0 | 3.2 | 0.00 | 0.38 | 0.38 | 45 | 1016.2 |
| 20260507045511 | 5 | 168 | 0.0 | 4.8 | 0.00 | 0.38 | 0.38 | 43 | 1016.2 |
| 20260507045009 | 5 | 168 | 0.0 | 4.8 | 0.00 | 0.38 | 0.38 | 44 | 1016.2 |
| 20260507044508 | 5 | 168 | 1.6 | 6.4 | 0.00 | 0.38 | 0.38 | 46 | 1016.2 |
| 20260507044008 | 5 | 168 | 3.2 | 6.4 | 0.00 | 0.38 | 0.38 | 43 | 1016.0 |
| 20260507043507 | 5 | 209 | 0.0 | 8.0 | 0.00 | 0.38 | 0.38 | 40 | 1016.0 |
| 20260507043006 | 5 | 176 | 6.4 | 8.0 | 0.00 | 0.38 | 0.38 | 39 | 1016.0 |
| 20260507042504 | 5 | 171 | 3.2 | 8.0 | 0.00 | 0.38 | 0.38 | 36 | 1015.9 |
| 20260507042001 | 4 | 175 | 4.8 | 11.3 | 0.00 | 0.38 | 0.38 | 37 | 1015.7 |
| 20260507041059 | 4 | 132 | 4.8 | 8.0 | 0.00 | 0.38 | 0.38 | 44 | 1015.7 |
| 20260507040600 | 4 | 214 | 1.6 | 6.4 | 0.00 | 0.38 | 0.38 | 44 | 1015.6 |
| 20260507040105 | 5 | 214 | 1.6 | 3.2 | 0.00 | 0.38 | 0.38 | 44 | 1015.6 |
| 20260507035555 | 5 | 214 | 0.0 | 4.8 | 0.00 | 0.38 | 0.38 | 46 | 1015.5 |
| 20260507035053 | 5 | 215 | 3.2 | 4.8 | 0.00 | 0.38 | 0.38 | 47 | 1015.6 |
| 20260507034557 | 5 | 214 | 1.6 | 4.8 | 0.00 | 0.38 | 0.38 | 46 | 1015.6 |
| 20260507034050 | 5 | 215 | 1.6 | 4.8 | 0.00 | 0.38 | 0.38 | 47 | 1015.5 |
| 20260507033549 | 5 | 215 | 1.6 | 4.8 | 0.00 | 0.38 | 0.38 | 49 | 1015.4 |
| 20260507033048 | 5 | 215 | 0.0 | 4.8 | 0.00 | 0.38 | 0.38 | 50 | 1015.3 |
| 20260507032547 | 6 | 215 | 0.0 | 4.8 | 0.00 | 0.38 | 0.38 | 50 | 1015.2 |
| 20260507032044 | 6 | 215 | 0.0 | 6.4 | 0.00 | 0.38 | 0.38 | 51 | 1015.1 |
| 20260507031543 | 6 | 215 | 1.6 | 6.4 | 0.00 | 0.38 | 0.38 | 52 | 1015.0 |
| 20260507031041 | 7 | 249 | 0.0 | 3.2 | 0.00 | 0.38 | 0.38 | 53 | 1015.0 |
| 20260507030541 | 7 | 249 | 0.0 | 3.2 | 0.00 | 0.38 | 0.38 | 53 | 1015.0 |
| 20260507030039 | 7 | 249 | 0.0 | 3.2 | 0.00 | 0.38 | 0.38 | 53 | 1015.0 |
| 20260507025538 | 7 | 249 | 0.0 | 3.2 | 0.00 | 0.38 | 0.38 | 53 | 1014.9 |
| 20260507025036 | 8 | 249 | 1.6 | 4.8 | 0.00 | 0.38 | 0.38 | 54 | 1014.9 |
| 20260507024536 | 8 | 249 | 1.6 | 4.8 | 0.00 | 0.38 | 0.38 | 53 | 1014.9 |
| 20260507024035 | 9 | 249 | 1.6 | 4.8 | 0.00 | 0.38 | 0.38 | 52 | 1014.9 |
| 20260507023532 | 10 | 249 | 0.0 | 4.8 | 0.00 | 0.38 | 0.38 | 51 | 1014.8 |
| 20260507023032 | 10 | 249 | 1.6 | 4.8 | 0.00 | 0.38 | 0.38 | 49 | 1014.8 |
| 20260507022532 | 11 | 249 | 1.6 | 4.8 | 0.00 | 0.38 | 0.38 | 46 | 1014.8 |
| 20260507022031 | 12 | 249 | 1.6 | 9.7 | 0.00 | 0.38 | 0.38 | 42 | 1014.7 |
| 20260507021529 | 14 | 247 | 1.6 | 9.7 | 0.00 | 0.38 | 0.38 | 39 | 1014.7 |
| 20260507021028 | 14 | 1 | 0.0 | 4.8 | 0.00 | 0.38 | 0.38 | 35 | 1014.7 |
| 20260507020527 | 15 | 1 | 0.0 | 4.8 | 0.00 | 0.38 | 0.38 | 34 | 1014.7 |
| 20260507020025 | 15 | 1 | 0.0 | 4.8 | 0.00 | 0.38 | 0.38 | 33 | 1014.7 |
| 20260507015526 | 15 | 360 | 1.6 | 6.4 | 0.00 | 0.38 | 0.38 | 31 | 1014.7 |
| 20260507015022 | 15 | 6 | 3.2 | 6.4 | 0.00 | 0.38 | 0.38 | 31 | 1014.7 |
| 20260507014521 | 15 | 211 | 3.2 | 8.0 | 0.00 | 0.38 | 0.38 | 31 | 1014.7 |
| 20260507014020 | 15 | 6 | 3.2 | 12.9 | 0.00 | 0.38 | 0.38 | 31 | 1014.8 |
| 20260507013518 | 15 | 359 | 6.4 | 14.5 | 0.00 | 0.38 | 0.38 | 29 | 1014.7 |
| 20260507013016 | 15 | 9 | 6.4 | 14.5 | 0.00 | 0.38 | 0.38 | 30 | 1014.7 |
| 20260507012518 | 16 | 350 | 6.4 | 16.1 | 0.00 | 0.38 | 0.38 | 30 | 1014.7 |
| 20260507012013 | 16 | 26 | 8.0 | 16.1 | 0.00 | 0.38 | 0.38 | 29 | 1014.7 |
| 20260507011523 | 16 | 18 | 8.0 | 16.1 | 0.00 | 0.38 | 0.38 | 29 | 1014.7 |
| 20260507011010 | 16 | 4 | 8.0 | 17.7 | 0.00 | 0.38 | 0.38 | 30 | 1014.7 |
| 20260507010509 | 16 | 345 | 8.0 | 17.7 | 0.00 | 0.38 | 0.38 | 30 | 1014.7 |
| 20260507010008 | 16 | 355 | 4.8 | 16.1 | 0.00 | 0.38 | 0.38 | 30 | 1014.7 |
| 20260507005512 | 16 | 37 | 8.0 | 17.7 | 0.00 | 0.38 | 0.38 | 29 | 1014.7 |
| 20260507005004 | 16 | 65 | 6.4 | 14.5 | 0.00 | 0.38 | 0.38 | 29 | 1014.7 |
| 20260507004505 | 16 | 41 | 9.7 | 16.1 | 0.00 | 0.38 | 0.38 | 29 | 1014.7 |
| 20260507004002 | 16 | 17 | 9.7 | 16.1 | 0.00 | 0.38 | 0.38 | 29 | 1014.7 |
| 20260507003600 | 16 | 24 | 9.7 | 17.7 | 0.00 | 0.38 | 0.38 | 29 | 1014.7 |
| 20260507003059 | 16 | 20 | 11.3 | 17.7 | 0.00 | 0.38 | 0.38 | 29 | 1014.7 |
| 20260507002557 | 16 | 20 | 8.0 | 19.3 | 0.00 | 0.38 | 0.38 | 29 | 1014.5 |
| 20260507002057 | 16 | 59 | 12.9 | 19.3 | 0.00 | 0.38 | 0.38 | 28 | 1014.6 |
| 20260507001613 | 16 | 28 | 11.3 | 22.5 | 0.00 | 0.38 | 0.38 | 29 | 1014.6 |
| 20260507001052 | 16 | 3 | 14.5 | 22.5 | 0.00 | 0.38 | 0.38 | 29 | 1014.6 |
| 20260507000553 | 16 | 32 | 11.3 | 24.1 | 0.00 | 0.38 | 0.38 | 29 | 1014.6 |
| 20260507000057 | 16 | 27 | 14.5 | 22.5 | 0.00 | 0.38 | 0.38 | 29 | 1014.5 |
| 20260506235549 | 16 | 37 | 14.5 | 20.9 | 0.00 | 0.38 | 0.38 | 29 | 1014.6 |
| 20260506235050 | 16 | 22 | 11.3 | 20.9 | 0.00 | 0.38 | 0.38 | 29 | 1014.7 |
| 20260506234547 | 16 | 55 | 14.5 | 20.9 | 0.00 | 0.38 | 0.38 | 29 | 1014.8 |
| 20260506234044 | 16 | 46 | 12.9 | 22.5 | 0.00 | 0.38 | 0.38 | 29 | 1014.8 |
| 20260506233543 | 16 | 22 | 16.1 | 25.7 | 0.00 | 0.38 | 0.38 | 29 | 1014.9 |
| 20260506233041 | 16 | 22 | 14.5 | 24.1 | 0.00 | 0.38 | 0.38 | 29 | 1014.9 |
| 20260506232539 | 16 | 22 | 12.9 | 24.1 | 0.00 | 0.38 | 0.38 | 29 | 1014.9 |
| 20260506232038 | 16 | 53 | 16.1 | 24.1 | 0.00 | 0.38 | 0.38 | 29 | 1014.9 |
| 20260506231537 | 16 | 41 | 16.1 | 25.7 | 0.00 | 0.38 | 0.38 | 29 | 1015.0 |
| 20260506231035 | 16 | 345 | 14.5 | 25.7 | 0.00 | 0.38 | 0.38 | 30 | 1015.0 |
| 20260506230533 | 16 | 31 | 16.1 | 25.7 | 0.00 | 0.38 | 0.38 | 30 | 1014.9 |
| 20260506230031 | 16 | 42 | 12.9 | 27.4 | 0.00 | 0.38 | 0.38 | 30 | 1015.0 |
| 20260506225531 | 15 | 10 | 20.9 | 27.4 | 0.00 | 0.38 | 0.38 | 31 | 1015.0 |
| 20260506225030 | 15 | 14 | 17.7 | 27.4 | 0.00 | 0.38 | 0.38 | 29 | 1015.1 |
| 20260506224530 | 15 | 44 | 16.1 | 29.0 | 0.00 | 0.38 | 0.38 | 30 | 1015.1 |
| 20260506224026 | 15 | 9 | 16.1 | 25.7 | 0.00 | 0.38 | 0.38 | 30 | 1015.2 |
| 20260506223526 | 15 | 35 | 16.1 | 35.4 | 0.00 | 0.38 | 0.38 | 31 | 1015.3 |
| 20260506223024 | 15 | 4 | 14.5 | 38.6 | 0.00 | 0.38 | 0.38 | 32 | 1015.2 |
| 20260506222522 | 15 | 13 | 22.5 | 38.6 | 0.00 | 0.38 | 0.38 | 30 | 1015.2 |
| 20260506222020 | 15 | 359 | 17.7 | 30.6 | 0.00 | 0.38 | 0.38 | 30 | 1015.2 |
| 20260506221518 | 15 | 2 | 20.9 | 32.2 | 0.00 | 0.38 | 0.38 | 30 | 1015.3 |
| 20260506221017 | 15 | 9 | 19.3 | 32.2 | 0.00 | 0.38 | 0.38 | 30 | 1015.3 |
| 20260506220516 | 15 | 8 | 14.5 | 25.7 | 0.00 | 0.38 | 0.38 | 30 | 1015.3 |
| 20260506220015 | 15 | 359 | 16.1 | 30.6 | 0.00 | 0.38 | 0.38 | 30 | 1015.3 |
| 20260506215513 | 15 | 3 | 17.7 | 30.6 | 0.00 | 0.38 | 0.38 | 31 | 1015.4 |
| 20260506215012 | 15 | 12 | 16.1 | 25.7 | 0.00 | 0.38 | 0.38 | 31 | 1015.4 |
| 20260506214510 | 15 | 26 | 17.7 | 33.8 | 0.00 | 0.38 | 0.38 | 32 | 1015.5 |
| 20260506214009 | 14 | 12 | 19.3 | 33.8 | 0.00 | 0.38 | 0.38 | 33 | 1015.6 |
| 20260506213507 | 14 | 14 | 16.1 | 27.4 | 0.00 | 0.38 | 0.38 | 32 | 1015.7 |
| 20260506213008 | 14 | 328 | 12.9 | 27.4 | 0.00 | 0.38 | 0.38 | 32 | 1015.7 |
| 20260506212508 | 14 | 345 | 16.1 | 27.4 | 0.00 | 0.38 | 0.38 | 33 | 1015.7 |
| 20260506212004 | 14 | 23 | 17.7 | 30.6 | 0.00 | 0.38 | 0.38 | 32 | 1015.7 |
| 20260506211501 | 14 | 350 | 17.7 | 30.6 | 0.00 | 0.38 | 0.38 | 33 | 1015.6 |
| 20260506211103 | 13 | 323 | 16.1 | 32.2 | 0.00 | 0.38 | 0.38 | 31 | 1015.7 |
| 20260506210601 | 13 | 345 | 16.1 | 32.2 | 0.00 | 0.38 | 0.38 | 32 | 1015.7 |
| 20260506210119 | 13 | 309 | 19.3 | 27.4 | 0.00 | 0.38 | 0.38 | 33 | 1015.6 |
| 20260506205556 | 13 | 350 | 16.1 | 30.6 | 0.00 | 0.38 | 0.38 | 32 | 1015.7 |
| 20260506205054 | 13 | 330 | 17.7 | 30.6 | 0.00 | 0.38 | 0.38 | 30 | 1015.7 |
| 20260506204553 | 14 | 16 | 11.3 | 27.4 | 0.00 | 0.38 | 0.38 | 34 | 1015.6 |
| 20260506204051 | 13 | 359 | 17.7 | 27.4 | 0.00 | 0.38 | 0.38 | 33 | 1015.6 |
| 20260506203550 | 13 | 11 | 16.1 | 32.2 | 0.00 | 0.38 | 0.38 | 32 | 1015.6 |
| 20260506203137 | 13 | 28 | 16.1 | 29.0 | 0.00 | 0.38 | 0.38 | 33 | 1015.7 |
| 20260506202550 | 13 | 41 | 17.7 | 30.6 | 0.00 | 0.38 | 0.38 | 31 | 1015.6 |
| 20260506202048 | 13 | 31 | 20.9 | 30.6 | 0.00 | 0.38 | 0.38 | 33 | 1015.6 |
| 20260506201548 | 13 | 336 | 16.1 | 30.6 | 0.00 | 0.38 | 0.38 | 33 | 1015.7 |
| 20260506201043 | 12 | 309 | 14.5 | 30.6 | 0.00 | 0.38 | 0.38 | 31 | 1015.7 |
| 20260506200542 | 13 | 337 | 16.1 | 32.2 | 0.00 | 0.38 | 0.38 | 32 | 1015.7 |
| 20260506200048 | 13 | 345 | 20.9 | 37.0 | 0.00 | 0.38 | 0.38 | 33 | 1015.6 |
| 20260506195539 | 13 | 359 | 16.1 | 32.2 | 0.00 | 0.38 | 0.38 | 31 | 1015.7 |
| 20260506195038 | 12 | 24 | 19.3 | 32.2 | 0.00 | 0.38 | 0.38 | 33 | 1015.5 |
| 20260506194537 | 12 | 3 | 20.9 | 32.2 | 0.00 | 0.38 | 0.38 | 32 | 1015.7 |
| 20260506194035 | 12 | 359 | 22.5 | 30.6 | 0.00 | 0.38 | 0.38 | 31 | 1015.7 |
| 20260506193534 | 12 | 336 | 16.1 | 32.2 | 0.00 | 0.38 | 0.38 | 32 | 1015.6 |
| 20260506193032 | 12 | 47 | 20.9 | 32.2 | 0.00 | 0.38 | 0.38 | 32 | 1015.6 |
| 20260506192533 | 12 | 329 | 20.9 | 32.2 | 0.00 | 0.38 | 0.38 | 32 | 1015.6 |
| 20260506192030 | 12 | 359 | 20.9 | 33.8 | 0.00 | 0.38 | 0.38 | 32 | 1015.5 |
| 20260506191529 | 12 | 311 | 20.9 | 33.8 | 0.00 | 0.38 | 0.38 | 32 | 1015.5 |
| 20260506191026 | 12 | 16 | 22.5 | 33.8 | 0.00 | 0.38 | 0.38 | 34 | 1015.5 |
| 20260506190525 | 12 | 1 | 19.3 | 35.4 | 0.00 | 0.38 | 0.38 | 34 | 1015.5 |
| 20260506190033 | 12 | 350 | 22.5 | 35.4 | 0.00 | 0.38 | 0.38 | 31 | 1015.6 |
| 20260506185521 | 12 | 328 | 17.7 | 37.0 | 0.00 | 0.38 | 0.38 | 31 | 1015.5 |
| 20260506185020 | 12 | 309 | 22.5 | 37.0 | 0.00 | 0.38 | 0.38 | 31 | 1015.5 |
| 20260506184519 | 12 | 319 | 22.5 | 33.8 | 0.00 | 0.38 | 0.38 | 32 | 1015.7 |
| 20260506184018 | 11 | 345 | 16.1 | 30.6 | 0.00 | 0.38 | 0.38 | 33 | 1015.6 |
| 20260506183516 | 11 | 19 | 22.5 | 30.6 | 0.00 | 0.38 | 0.38 | 31 | 1015.7 |
| 20260506183015 | 11 | 1 | 17.7 | 30.6 | 0.00 | 0.38 | 0.38 | 31 | 1015.7 |
| 20260506182513 | 11 | 345 | 19.3 | 37.0 | 0.00 | 0.38 | 0.38 | 32 | 1015.5 |
| 20260506182017 | 11 | 336 | 22.5 | 37.0 | 0.00 | 0.38 | 0.38 | 32 | 1015.5 |
| 20260506181510 | 12 | 340 | 20.9 | 35.4 | 0.00 | 0.38 | 0.38 | 33 | 1015.5 |
| 20260506181009 | 11 | 345 | 17.7 | 35.4 | 0.00 | 0.38 | 0.38 | 33 | 1015.4 |
| 20260506180510 | 11 | 310 | 17.7 | 37.0 | 0.00 | 0.38 | 0.38 | 33 | 1015.5 |
| 20260506180006 | 11 | 331 | 22.5 | 41.8 | 0.00 | 0.38 | 0.38 | 32 | 1015.4 |
| 20260506175507 | 11 | 359 | 22.5 | 41.8 | 0.00 | 0.38 | 0.38 | 34 | 1015.4 |
| 20260506175003 | 11 | 2 | 24.1 | 33.8 | 0.00 | 0.38 | 0.38 | 33 | 1015.5 |
| 20260506174611 | 11 | 18 | 24.1 | 33.8 | 0.00 | 0.38 | 0.38 | 33 | 1015.3 |
| 20260506174502 | 11 | 323 | 22.5 | 37.0 | 0.00 | 0.38 | 0.38 | 35 | 1015.4 |
| 20260506174101 | 11 | 332 | 19.3 | 37.0 | 0.00 | 0.38 | 0.38 | 37 | 1015.3 |
| 20260506173559 | 11 | 33 | 19.3 | 35.4 | 0.00 | 0.38 | 0.38 | 38 | 1015.2 |
| 20260506173058 | 11 | 7 | 24.1 | 35.4 | 0.00 | 0.38 | 0.38 | 39 | 1015.2 |
| 20260506172555 | 11 | 350 | 24.1 | 32.2 | 0.00 | 0.38 | 0.38 | 37 | 1015.0 |
| 20260506172054 | 11 | 337 | 20.9 | 32.2 | 0.00 | 0.38 | 0.38 | 38 | 1014.9 |
| 20260506171557 | 11 | 309 | 20.9 | 38.6 | 0.00 | 0.38 | 0.38 | 38 | 1014.9 |
| 20260506171052 | 11 | 345 | 22.5 | 40.2 | 0.00 | 0.38 | 0.38 | 37 | 1014.8 |
| 20260506170550 | 11 | 345 | 20.9 | 37.0 | 0.00 | 0.38 | 0.38 | 38 | 1014.6 |
| 20260506170049 | 11 | 37 | 24.1 | 37.0 | 0.00 | 0.38 | 0.38 | 36 | 1014.5 |
| 20260506165546 | 11 | 33 | 20.9 | 37.0 | 0.00 | 0.38 | 0.38 | 37 | 1014.4 |
| 20260506165045 | 11 | 359 | 22.5 | 38.6 | 0.00 | 0.38 | 0.38 | 37 | 1014.3 |
| 20260506164548 | 11 | 338 | 25.7 | 38.6 | 0.00 | 0.38 | 0.38 | 37 | 1014.3 |
| 20260506164042 | 11 | 326 | 19.3 | 35.4 | 0.00 | 0.38 | 0.38 | 40 | 1014.1 |
| 20260506163540 | 11 | 339 | 20.9 | 38.6 | 0.00 | 0.38 | 0.38 | 40 | 1014.2 |
| 20260506163055 | 11 | 8 | 17.7 | 38.6 | 0.00 | 0.38 | 0.38 | 41 | 1014.1 |
| 20260506162537 | 11 | 336 | 20.9 | 33.8 | 0.00 | 0.38 | 0.38 | 43 | 1013.9 |
| 20260506162037 | 11 | 337 | 20.9 | 35.4 | 0.00 | 0.38 | 0.38 | 41 | 1013.9 |
| 20260506161537 | 11 | 332 | 20.9 | 38.6 | 0.00 | 0.38 | 0.38 | 42 | 1013.8 |
| 20260506161035 | 11 | 339 | 22.5 | 38.6 | 0.00 | 0.38 | 0.38 | 43 | 1013.9 |
| 20260506160531 | 11 | 341 | 19.3 | 33.8 | 0.03 | 0.38 | 0.38 | 46 | 1013.7 |
| 20260506160030 | 10 | 12 | 20.9 | 35.4 | 0.03 | 0.38 | 0.38 | 43 | 1013.7 |
| 20260506155528 | 10 | 338 | 22.5 | 35.4 | 0.03 | 0.38 | 0.38 | 43 | 1013.7 |
| 20260506155027 | 10 | 360 | 22.5 | 33.8 | 0.03 | 0.38 | 0.38 | 44 | 1013.6 |
| 20260506154534 | 10 | 5 | 19.3 | 29.0 | 0.03 | 0.38 | 0.38 | 43 | 1013.5 |
| 20260506154024 | 10 | 28 | 17.7 | 32.2 | 0.03 | 0.38 | 0.38 | 44 | 1013.6 |
| 20260506153523 | 10 | 311 | 20.9 | 38.6 | 0.03 | 0.38 | 0.38 | 42 | 1013.6 |
| 20260506153025 | 10 | 323 | 20.9 | 38.6 | 0.03 | 0.38 | 0.38 | 42 | 1013.5 |
| 20260506152520 | 10 | 307 | 16.1 | 27.4 | 0.03 | 0.38 | 0.38 | 43 | 1013.5 |
| 20260506152018 | 10 | 345 | 19.3 | 27.4 | 0.03 | 0.38 | 0.38 | 42 | 1013.4 |
| 20260506151517 | 10 | 359 | 17.7 | 29.0 | 0.03 | 0.38 | 0.38 | 41 | 1013.3 |
| 20260506151016 | 10 | 317 | 19.3 | 37.0 | 0.03 | 0.38 | 0.38 | 40 | 1013.3 |
| 20260506150518 | 10 | 323 | 19.3 | 32.2 | 0.00 | 0.36 | 0.36 | 40 | 1013.2 |
| 20260506150012 | 10 | 311 | 20.9 | 33.8 | 0.00 | 0.36 | 0.36 | 39 | 1013.2 |
| 20260506145511 | 10 | 350 | 20.9 | 33.8 | 0.00 | 0.36 | 0.36 | 39 | 1013.2 |
| 20260506145009 | 10 | 5 | 19.3 | 32.2 | 0.00 | 0.36 | 0.36 | 40 | 1013.0 |
| 20260506144507 | 9 | 359 | 19.3 | 35.4 | 0.00 | 0.36 | 0.36 | 39 | 1012.9 |
| 20260506144009 | 9 | 339 | 22.5 | 35.4 | 0.00 | 0.36 | 0.36 | 39 | 1012.7 |
| 20260506143507 | 9 | 338 | 19.3 | 30.6 | 0.00 | 0.36 | 0.36 | 42 | 1012.8 |
| 20260506143004 | 9 | 307 | 17.7 | 29.0 | 0.00 | 0.36 | 0.36 | 48 | 1012.7 |
| 20260506142503 | 9 | 345 | 17.7 | 25.7 | 0.00 | 0.36 | 0.36 | 49 | 1012.7 |
| 20260506142000 | 9 | 328 | 17.7 | 25.7 | 0.00 | 0.36 | 0.36 | 50 | 1012.7 |
| 20260506141558 | 8 | 328 | 17.7 | 25.7 | 0.00 | 0.36 | 0.36 | 52 | 1012.7 |
| 20260506141057 | 8 | 295 | 11.3 | 24.1 | 0.00 | 0.36 | 0.36 | 52 | 1012.7 |
| 20260506140558 | 8 | 325 | 11.3 | 24.1 | 0.00 | 0.36 | 0.36 | 53 | 1012.7 |
| 20260506140056 | 8 | 309 | 16.1 | 24.1 | 0.00 | 0.36 | 0.36 | 53 | 1012.7 |
| 20260506135553 | 8 | 315 | 12.9 | 22.5 | 0.00 | 0.36 | 0.36 | 53 | 1012.7 |
| 20260506135051 | 8 | 290 | 14.5 | 22.5 | 0.00 | 0.36 | 0.36 | 53 | 1012.7 |
| 20260506134550 | 8 | 289 | 11.3 | 19.3 | 0.00 | 0.36 | 0.36 | 52 | 1012.6 |
| 20260506134048 | 7 | 299 | 11.3 | 19.3 | 0.00 | 0.36 | 0.36 | 50 | 1012.6 |
| 20260506133547 | 7 | 302 | 11.3 | 20.9 | 0.00 | 0.36 | 0.36 | 50 | 1012.5 |
| 20260506133048 | 7 | 313 | 12.9 | 20.9 | 0.00 | 0.36 | 0.36 | 49 | 1012.4 |
| 20260506132545 | 7 | 303 | 11.3 | 19.3 | 0.00 | 0.36 | 0.36 | 44 | 1012.3 |
| 20260506132043 | 7 | 338 | 11.3 | 17.7 | 0.00 | 0.36 | 0.36 | 38 | 1012.3 |
| 20260506131541 | 7 | 338 | 9.7 | 17.7 | 0.00 | 0.36 | 0.36 | 23 | 1012.2 |
| 20260506131039 | 7 | 299 | 8.0 | 16.1 | 0.00 | 0.36 | 0.36 | 1 | 1012.0 |
| 20260506130538 | 6 | 301 | 6.4 | 16.1 | 0.00 | 0.36 | 0.36 | 1 | 1012.0 |
| 20260506130040 | 6 | 303 | 9.7 | 16.1 | 0.00 | 0.36 | 0.36 | 1 | 1011.8 |
| 20260506125536 | 6 | 323 | 8.0 | 16.1 | 0.00 | 0.36 | 0.36 | 1 | 1011.7 |
| 20260506125033 | 6 | 310 | 9.7 | 16.1 | 0.00 | 0.36 | 0.36 | 1 | 1011.7 |
| 20260506124532 | 6 | 318 | 9.7 | 16.1 | 0.00 | 0.36 | 0.36 | 1 | 1011.7 |
| 20260506124031 | 6 | 323 | 9.7 | 16.1 | 0.00 | 0.36 | 0.36 | 1 | 1011.5 |
| 20260506123530 | 6 | 297 | 9.7 | 16.1 | 0.00 | 0.36 | 0.36 | 1 | 1011.5 |
| 20260506123028 | 6 | 295 | 9.7 | 14.5 | 0.00 | 0.36 | 0.36 | 1 | 1011.4 |
| 20260506122527 | 6 | 308 | 9.7 | 14.5 | 0.00 | 0.36 | 0.36 | 1 | 1011.4 |
| 20260506122025 | 6 | 328 | 6.4 | 14.5 | 0.00 | 0.36 | 0.36 | 1 | 1011.3 |
| 20260506121523 | 6 | 306 | 6.4 | 16.1 | 0.00 | 0.36 | 0.36 | 1 | 1011.2 |
| 20260506121024 | 6 | 350 | 9.7 | 16.1 | 0.00 | 0.36 | 0.36 | 1 | 1011.1 |
| 20260506120520 | 7 | 338 | 8.0 | 19.3 | 0.00 | 0.36 | 0.36 | 1 | 1011.1 |
| 20260506120019 | 7 | 303 | 11.3 | 24.1 | 0.00 | 0.36 | 0.36 | 1 | 1011.0 |
| 20260506115516 | 7 | 291 | 16.1 | 24.1 | 0.00 | 0.36 | 0.36 | 1 | 1011.0 |
| 20260506115015 | 7 | 311 | 16.1 | 25.7 | 0.00 | 0.36 | 0.36 | 1 | 1010.9 |
| 20260506114515 | 7 | 299 | 17.7 | 24.1 | 0.00 | 0.36 | 0.36 | 1 | 1010.8 |
| 20260506114013 | 7 | 297 | 16.1 | 29.0 | 0.00 | 0.36 | 0.36 | 1 | 1010.8 |
| 20260506113512 | 7 | 298 | 17.7 | 29.0 | 0.00 | 0.36 | 0.36 | 1 | 1010.8 |
| 20260506113010 | 7 | 311 | 19.3 | 27.4 | 0.00 | 0.36 | 0.36 | 1 | 1010.8 |
| 20260506112509 | 7 | 313 | 17.7 | 27.4 | 0.00 | 0.36 | 0.36 | 1 | 1010.7 |
| 20260506112007 | 7 | 301 | 17.7 | 25.7 | 0.00 | 0.36 | 0.36 | 1 | 1010.7 |
| 20260506111506 | 7 | 302 | 19.3 | 25.7 | 0.00 | 0.36 | 0.36 | 1 | 1010.6 |
| 20260506111003 | 7 | 293 | 16.1 | 25.7 | 0.00 | 0.36 | 0.36 | 1 | 1010.6 |
| 20260506110502 | 7 | 310 | 11.3 | 17.7 | 0.00 | 0.36 | 0.36 | 1 | 1010.5 |
| 20260506110002 | 7 | 309 | 8.0 | 19.3 | 0.00 | 0.36 | 0.36 | 1 | 1010.4 |
| 20260506105600 | 7 | 304 | 8.0 | 19.3 | 0.00 | 0.36 | 0.36 | 1 | 1010.4 |
| 20260506105057 | 7 | 285 | 4.8 | 16.1 | 0.00 | 0.36 | 0.36 | 1 | 1010.2 |
| 20260506104607 | 7 | 307 | 6.4 | 17.7 | 0.00 | 0.36 | 0.36 | 1 | 1010.2 |
| 20260506104055 | 7 | 311 | 8.0 | 16.1 | 0.00 | 0.36 | 0.36 | 1 | 1010.0 |
| 20260506103553 | 6 | 294 | 8.0 | 14.5 | 0.00 | 0.36 | 0.36 | 1 | 1009.8 |
| 20260506103054 | 6 | 319 | 6.4 | 9.7 | 0.00 | 0.36 | 0.36 | 1 | 1009.7 |
| 20260506102550 | 6 | 315 | 4.8 | 11.3 | 0.00 | 0.36 | 0.36 | 1 | 1009.5 |
| 20260506102048 | 6 | 333 | 4.8 | 6.4 | 0.00 | 0.36 | 0.36 | 1 | 1009.4 |
| 20260506101558 | 6 | 333 | 0.0 | 0.0 | 0.00 | 0.36 | 0.36 | 1 | 1009.2 |
| 20260506101045 | 6 | 333 | 0.0 | 0.0 | 0.00 | 0.36 | 0.36 | 1 | 1009.1 |
| 20260506100546 | 6 | 333 | 0.0 | 0.0 | 0.00 | 0.36 | 0.36 | 1 | 1009.1 |
| 20260506100043 | 5 | 333 | 0.0 | 0.0 | 0.00 | 0.36 | 0.36 | 1 | 1008.9 |
| 20260506095542 | 5 | 333 | 0.0 | 0.0 | 0.00 | 0.38 | 0.36 | 1 | 1008.9 |
| 20260506095040 | 5 | 333 | 0.0 | 0.0 | 0.00 | 0.38 | 0.36 | 1 | 1008.9 |
| 20260506094539 | 5 | 333 | 0.0 | 0.0 | 0.00 | 0.38 | 0.36 | 1 | 1008.8 |
| 20260506094037 | 5 | 333 | 0.0 | 0.0 | 0.00 | 0.38 | 0.36 | 1 | 1008.7 |
| 20260506093537 | 5 | 333 | 0.0 | 0.0 | 0.00 | 0.38 | 0.36 | 1 | 1008.7 |
| 20260506093035 | 5 | 333 | 0.0 | 0.0 | 0.00 | 0.38 | 0.36 | 1 | 1008.7 |
| 20260506092533 | 5 | 35 | 0.0 | 0.0 | 0.00 | 0.38 | 0.36 | 1 | 1008.4 |
| 20260506092033 | 5 | 35 | 0.0 | 3.2 | 0.00 | 0.38 | 0.36 | 1 | 1008.3 |
| 20260506091530 | 5 | 35 | 0.0 | 3.2 | 0.00 | 0.38 | 0.36 | 1 | 1008.1 |
| 20260506091030 | 5 | 35 | 0.0 | 3.2 | 0.00 | 0.38 | 0.36 | 1 | 1008.0 |
| 20260506090527 | 5 | 35 | 0.0 | 6.4 | 0.00 | 0.38 | 0.36 | 1 | 1008.0 |
| 20260506090026 | 5 | 35 | 1.6 | 6.4 | 0.00 | 0.38 | 0.36 | 1 | 1008.1 |